Location: Bassano
(45.7667°N, 11.7333°E)
Time: 00:10:05
(UTC+00:00)

ISS - Pass Details

Date: 12 March 2021
Orbit: 418 x 421 km, 51.6° (Epoch: 22 April)

Event Time Altitude Azimuth Distance (km) Brightness Sun altitude
Exits shadow 04:47:25 11° 254° (WSW) 1,420 -1.7 -8.5°
Maximum altitude 04:48:52 14° 227° (SW) 1,274 -1.8 -8.2°
Drops below altitude 10° 04:50:41 10° 194° (SSW) 1,490 -1.1 -7.9°
Sets 04:53:31 0° 167° (SSE) 2,348 0.2 -7.4°
